Weather History for Cecil Field, FL

Change the Weather History Date:

Wednesday, August 27, 2014

  Actual Average (KJAX) Record (KJAX)
Temperature  
Mean Temperature 76 °F 81 °F  
Max Temperature 87 °F 90 °F 99 °F (2011)
Min Temperature 64 °F 72 °F 64 °F (1984)
Degree Days  
Heating Degree Days 0 0  
Month to date heating degree days 0  
Since 1 June heating degree days 0  
Since 1 July heating degree days 0  
Cooling Degree Days 12 16  
Month to date cooling degree days 455  
Year to date cooling degree days 1924  
Since 1 June cooling degree days 1440  
Growing Degree Days 26 (Base 50)    
Moisture  
Dew Point 66 °F    
Average Humidity 85    
Maximum Humidity 100    
Minimum Humidity 43    
Precipitation  
Precipitation 0.00 in 0.26 in 3.42 in (1893)
Month to date precipitation 5.78  
Year to date precipitation 34.34  
Snow  
Snow 0.00 in 0.00 in 0.00 in (2002)
Month to date snowfall 0.0  
Since 1 June snowfall 0.0  
Since 1 July snowfall 0.0  
Snow Depth -    
Sea Level Pressure  
Sea Level Pressure 30.00 in    
Wind  
Wind Speed 2 mph (NE)    
Max Wind Speed 12 mph    
Max Gust Speed -    
Visibility 10 miles    
Events      
T = Trace of Precipitation, MM = Missing Value Source: NWS Daily Summary

Daily Weather History Graph

Daily Weather History Graph

Search for Another Location

Airport:

Trip Planner

Search our weather history database for the weather conditions in past years. The results will help you decide how hot, cold, wet, or windy it might be!

Date:

Astronomy

Aug. 27, 2014 Rise Set
Actual Time 7:01 AM EDT 7:55 PM EDT
Civil Twilight 6:36 AM EDT 8:20 PM EDT
Nautical Twilight 6:07 AM EDT 8:49 PM EDT
Astronomical Twilight 5:37 AM EDT 9:19 PM EDT
Moon 8:45 AM EDT (8/27) 9:00 PM EDT (8/27)
Length of Visible Light 13h 43m
Length of Day
12h 54m
Waxing Crescent, 4% of the Moon is Illuminated
Aug 27
Waxing Crescent
Sep 2
First Quarter
Sep 8
Full
Sep 15
Last Quarter
Sep 24
New

Hourly Weather History & Observations

Time (EDT) Temp. Heat Index Dew Point Humidity Pressure Visibility Wind Dir Wind Speed Gust Speed Precip Events Conditions
12:15 AM 68.0 °F - 68.0 °F 100% 30.00 in 9.0 mi Calm Calm - N/A   Clear
12:55 AM 69.8 °F - 68.0 °F 94% 29.99 in 10.0 mi Calm Calm - N/A   Clear
1:15 AM 68.0 °F - 68.0 °F 100% 29.99 in 10.0 mi Calm Calm - N/A   Clear
1:35 AM 68.0 °F - 68.0 °F 100% 29.99 in 10.0 mi Calm Calm - N/A   Clear
1:55 AM 68.0 °F - 68.0 °F 100% 29.98 in 10.0 mi Calm Calm - N/A   Clear
2:15 AM 68.0 °F - 68.0 °F 100% 29.98 in 10.0 mi Calm Calm - N/A   Clear
2:55 AM 68.0 °F - 68.0 °F 100% 29.98 in 10.0 mi Calm Calm - N/A   Clear
3:15 AM 66.2 °F - 66.2 °F 100% 29.97 in 10.0 mi Calm Calm - N/A   Clear
3:35 AM 66.2 °F - 66.2 °F 100% 29.97 in 10.0 mi Calm Calm - N/A   Clear
3:55 AM 66.2 °F - 66.2 °F 100% 29.97 in 9.0 mi Calm Calm - N/A   Clear
4:15 AM 66.2 °F - 66.2 °F 100% 29.97 in 10.0 mi Calm Calm - N/A   Clear
4:35 AM 66.2 °F - 66.2 °F 100% 29.97 in 8.0 mi Calm Calm - N/A   Clear
5:15 AM 66.2 °F - 66.2 °F 100% 29.97 in 10.0 mi Calm Calm - N/A   Clear
5:55 AM 68.0 °F - 66.2 °F 94% 29.98 in 10.0 mi Calm Calm - N/A   Clear
6:15 AM 66.2 °F - 66.2 °F 100% 29.99 in 10.0 mi Calm Calm - N/A   Clear
6:35 AM 66.2 °F - 66.2 °F 100% 29.99 in 10.0 mi Calm Calm - N/A   Clear
6:50 AM 66.2 °F - 66.2 °F 100% 29.99 in 10.0 mi Calm Calm - N/A   Clear
7:50 AM 66.2 °F - 66.2 °F 100% 30.01 in 10.0 mi North 4.6 mph - N/A   Clear
9:50 AM 78.8 °F - 68.0 °F 69% 30.03 in 10.0 mi NNE 9.2 mph - N/A   Clear
10:50 AM 82.4 °F 86.3 °F 69.8 °F 66% 30.03 in 10.0 mi North 11.5 mph - N/A   Scattered Clouds
11:50 AM 84.2 °F 88.4 °F 69.8 °F 62% 30.03 in 10.0 mi North 9.2 mph - N/A   Mostly Cloudy
12:50 PM 84.2 °F 87.3 °F 68.0 °F 58% 30.03 in 10.0 mi North 5.8 mph - N/A   Mostly Cloudy
1:50 PM 86.0 °F 87.3 °F 64.4 °F 48% 30.00 in 10.0 mi North 5.8 mph - N/A   Scattered Clouds
2:50 PM 87.8 °F 89.4 °F 64.4 °F 46% 29.99 in 10.0 mi NNE 4.6 mph - N/A   Scattered Clouds
3:50 PM 87.8 °F 88.5 °F 62.6 °F 43% 29.97 in 10.0 mi Calm Calm - N/A   Scattered Clouds
4:50 PM 86.0 °F 89.4 °F 68.0 °F 55% 29.97 in 10.0 mi East 11.5 mph - N/A   Partly Cloudy
5:50 PM 84.2 °F 86.6 °F 66.2 °F 55% 29.97 in 10.0 mi ENE 9.2 mph - N/A   Partly Cloudy
6:50 PM 82.4 °F 84.6 °F 66.2 °F 58% 29.97 in 10.0 mi ENE 11.5 mph - N/A   Clear
7:50 PM 78.8 °F - 66.2 °F 65% 29.98 in 10.0 mi East 5.8 mph - N/A   Clear
8:35 PM 73.4 °F - 66.2 °F 78% 30.00 in 10.0 mi Calm Calm - N/A   Clear
8:55 PM 73.4 °F - 66.2 °F 78% 30.01 in 10.0 mi East 3.5 mph - N/A   Clear
9:15 PM 71.6 °F - 66.2 °F 83% 30.02 in 10.0 mi Calm Calm - N/A   Clear
9:35 PM 68.0 °F - 66.2 °F 94% 30.02 in 10.0 mi Calm Calm - N/A   Clear
10:15 PM 66.2 °F - 66.2 °F 100% 30.03 in 10.0 mi Calm Calm - N/A   Clear
10:35 PM 66.2 °F - 66.2 °F 100% 30.03 in 10.0 mi Calm Calm - N/A   Clear
10:55 PM 66.2 °F - 64.4 °F 94% 30.03 in 10.0 mi Calm Calm - N/A   Clear
11:15 PM 66.2 °F - 64.4 °F 94% 30.02 in 10.0 mi Calm Calm - N/A   Clear
11:35 PM 66.2 °F - 64.4 °F 94% 30.02 in 10.0 mi Calm Calm - N/A   Clear
11:55 PM 64.4 °F - 64.4 °F 100% 30.02 in 10.0 mi Calm Calm - N/A   Clear